OBJECT C, 68690

Orbit data source: Space-Track

You're viewing an Uncataloged Satellite

Recently launched and/or uncataloged satellites may have evolving metadata. Metadata may include but not limited to: Owner, Maufacturer, Bus, Motor, and Mission.

OBJECT C, 68690 is a satellite owned by Changzheng H. (CN) in LEO that was launched on Sat, 11 Apr 2026 UTC launched from the South China Sea Launch Area (SCSLA). Unknown objects in Earth's orbit typically refer to objects detected orbiting the Earth but have not yet been identified or cataloged. These objects could be anything from previously untracked satellites, spent rocket stages, debris from satellite collisions, or even natural meteoroids temporarily captured by Earth's gravity.

Loading next visibility...
Identifier
68690, 2026-078C
Orbit
LEO
Country
Flag of CNCN / PRC
Related business
Manufacturer
Changzheng H.
Mission
Spacecraft
Bus & Motor
Unknown
Mass
500 kg wet, 500 kg dry
Launch date (UTC)
2026-04-11 (4 days ago)
Launch vehicle
Unknown
Launch site
South China Sea Launch Area (SCSLA)
Object type
Unknown
Shape & HBR
Unknown
Radar Cross Section
RCS unknown

Expand to show TLE details & history
Last TLE update: 7 hours ago

TLE from 7 hours ago
0 OBJECT C
1 68690U 26078C   26105.28841925  .00004369  00000-0  19802-3 0  9990
2 68690  86.6404 304.4420 0444714  13.6460 347.6319 14.61716570   540
Epoch: 2026-04-15T06:55Z
TLE epoch observation values (Epoch: 2026-04-15T06:55:19.423Z)
Latitude
0.00007°
Longitude
-2.84139°
Altitude
384.42 km
Speed
7.844 km/s
True Right ascension
20h 17m 46s
True Declination
0° 00' 00"
Sunlit
Object was in daylight at epoch
Visualization orbit readout
Latitude
Unknown
Longitude
Unknown
Altitude
Unknown
Speed
Unknown
Apparent Right ascension
Unknown
Apparent Declination
Unknown
Sunlit
N/A
Visualization observer readout
Local Sidereal Time
20:09:41
Azimuth
Unknown
Elevation
Unknown
Doppler factor
Unknown
Orbital elements
Apogee altitude
998.636 km
Perigee altitude
370.461 km
Semi-major axis
7,062.686 km
Eccentricity
0.04447
Inclination
86.6404°
RAAN
304.442°
Arg. of periapsis
13.646°
True anomaly
346.47793°
Mean anomaly
347.6319°
Eccentric anomaly
347.06138°
Mean motion
3.65669 °/min
Orbital period
98.45 mins
BSTAR
0.00019802
Loading maneuver chart data...
Computing Atmospheric mass density...
Loading historical data...
Loading historical data...
Loading historical data...
Loading historical data...
Loading historical data...
Loading historical data...
Loading historical data...
Other satellites on launch #78 in the year 2026 (2026-04-11 UTC)

Documentation

Showing up to 5 results
|